[[{"header":{"parameterUnit":"m.s-1","parameterCategory":1,"la1":30.2991,"la2":30.254,"lo1":-89.0895,"lo2":-89.0444,"dy":0.0017,"dx":0.0017,"nx":28,"ny":28,"refTime":"2023-08-29T03:00:00:Z","depth":0,"parameterNumber":2,"parameterNumberName":"U-component_of_WINDS"},"data":[0,0,0,0,0,0,0,0,0,0,0,0,0,0,0,0,0,0,0,0,0,0,0,0,0,0,0,0,0,0,0,0,0,0,0,0,0,0,0,0,0,0,0,0,0,0,0,0,0,0,0,0,0,0,0,0,0,0,-3.9019,-3.9019,0,-3.9015,-3.9015,-3.9015,-3.8893,-3.889,-3.8887,-3.8884,-3.888,-3.8882,-3.8885,0,0,0,0,0,0,0,0,0,0,0,0,0,-3.8921,-3.8924,-3.9019,-3.9019,-3.9019,-3.9015,-3.9015,-3.9015,-3.8894,-3.889,-3.8886,-3.8883,-3.8879,-3.8882,-3.8885,0,0,0,0,0,0,0,0,0,0,0,0,0,-3.8945,-3.8924,-3.9019,-3.8958,-3.8952,-3.9015,-3.9015,-3.9015,-3.8895,-3.889,-3.8885,-3.8881,-3.8878,-3.8882,-3.8886,-3.9006,0,0,-3.8899,-3.8901,0,0,0,0,0,0,0,0,-3.8944,-3.8949,-3.8967,-3.8962,-3.8956,-3.895,-3.8979,-3.9012,-3.8896,-3.8917,-3.8884,-3.8878,-3.8907,-3.8908,-3.8918,-3.9006,-3.9006,-3.8899,-3.8902,-3.8903,-3.8905,0,0,0,0,0,0,0,-3.8942,-3.8948,-3.9017,-3.8967,-3.8961,-3.8931,-3.8929,-3.8984,-3.8938,-3.8914,-3.8906,-3.8907,-3.8903,-3.8914,-3.8917,-3.9006,-3.8899,-3.8903,-3.8905,-3.8907,-3.9193,-3.9198,0,0,0,0,0,0,-3.8949,-3.8948,-3.9017,-3.9017,-3.8938,-3.8936,-3.8934,-3.8957,-3.8937,-3.893,-3.8911,-3.8901,-3.8909,-3.8912,-3.8916,-3.9055,-3.8903,-3.8907,-3.891,-3.9188,-3.9194,-3.9199,0,0,0,0,0,0,-3.8948,-3.8957,-3.9017,-3.898,-3.8986,-3.8943,-3.8969,-3.8959,-3.897,-3.8934,-3.8926,-3.8931,-3.8906,-3.891,-3.8985,-3.9054,-3.8909,-3.8913,-3.9182,-3.919,-3.9197,-3.9336,0,0,0,0,0,0,-3.8945,-3.8957,-3.9002,-3.8982,-3.8988,-3.9087,-3.8973,-3.8962,-3.8978,-3.8965,-3.8951,-3.8944,-3.8902,-3.8979,-3.8989,-3.9057,-3.8916,-3.9175,-3.9185,-3.9194,-3.9325,-3.9347,-3.9366,0,0,0,0,0,-3.8942,-3.9041,-3.9005,-3.9014,-3.9044,-3.9091,-3.9094,-3.9044,-3.8984,-3.9029,-3.9006,-3.8944,-3.9045,-3.8988,-3.8998,-3.9068,-3.9171,-3.9182,-3.9194,-3.9315,-3.9343,-3.9366,0,0,0,0,0,0,-3.907,-3.9037,-3.8997,-3.9092,-3.9095,-3.907,-3.9125,-3.9075,-3.9095,-3.9082,-3.9019,-3.9017,-3.9101,-3.9092,-3.9029,-3.9184,-3.9097,-3.9111,-3.9186,-3.9212,-3.9232,-3.9232,-3.892,0,0,0,0,0,-3.9109,-3.915,-3.912,-3.9207,-3.921,-3.9168,-3.9187,-3.9148,-3.9149,-3.9149,-3.9132,-3.9135,-3.9166,-3.9189,-3.9216,-3.9323,-3.9318,-3.9377,-3.9398,-3.9415,-3.9427,-3.9483,-3.9508,-3.9237,-3.9237,-3.9236,0,0,-3.919,-3.9178,-3.9207,-3.9232,-3.923,-3.9273,-3.917,-3.922,-3.9252,-3.9157,-3.9225,-3.9214,-3.9213,-3.9304,-3.9343,-3.9299,-3.9501,-3.9429,-3.9443,-3.9446,-3.9497,-3.9523,-3.9546,-3.9244,-3.9243,-3.9242,0,0,-3.9361,-3.9356,-3.9428,-3.9428,-3.9426,-3.9397,-3.9415,-3.9398,-3.9386,-3.9455,-3.9384,-3.9421,-3.9478,-3.948,-3.9489,-3.9662,-3.9606,-3.9673,-3.9781,-3.9836,-3.9857,-3.9876,-3.9937,-3.996,-3.9686,-3.9686,-3.9686,0,-3.9462,-3.9525,-3.9471,-3.9526,-3.9539,-3.9456,-3.9528,-3.9531,-3.9538,-3.9549,-3.95,-3.9569,-3.9563,-3.9653,-3.9696,-3.9706,-3.9724,-3.9673,-3.9859,-3.9877,-3.9893,-3.9951,-3.9974,-3.9694,-3.9693,-3.9692,-3.9692,0,-3.9649,-3.9694,-3.9752,-3.9762,-3.9782,-3.9845,-3.9801,-3.9828,-3.9788,-3.9765,-3.9836,-3.9826,-3.985,-3.9869,-3.9831,-3.9955,-3.9927,-3.987,-3.9781,-3.9928,-3.9981,-4.0003,-3.9706,-3.9703,-3.97,-3.9698,0,0,-3.9897,-3.9878,-3.99,-3.9903,-3.9896,-3.993,-3.999,-4.0014,-4.0037,-4.0046,-4.0095,-4.0146,-4.0092,-4.0102,-4.0064,-4.0113,-4.025,-4.0048,-4.0047,-4.0086,-4.0386,-4.0428,-4.0455,-4.0214,-4.0218,-4.0221,-4.0385,0,-4.0061,-4.0163,-4.0117,-4.0223,-4.0264,-4.0186,-4.0239,-4.024,-4.0221,-4.0252,-4.0231,-4.0268,-4.0195,-4.02,-4.0245,-4.0224,-4.0309,-4.0212,-4.0258,-4.026,-4.0259,-4.0482,-4.0527,-4.0683,-4.0406,-4.0409,-4.0412,0,-4.0265,-4.0283,-4.0394,-4.0379,-4.0395,-4.0443,-4.0461,-4.0493,-4.0493,-4.0475,-4.0488,-4.0439,-4.0497,-4.0411,-4.049,-4.0425,-4.0441,-4.0434,-4.0439,-4.044,-4.0344,-4.0488,-4.0731,-4.0754,-4.0444,-4.0441,-4.0439,0,-4.0434,-4.0486,-4.0558,-4.0564,-4.0549,-4.0585,-4.0581,-4.0576,-4.0594,-4.061,-4.0621,-4.0645,-4.0657,-4.0677,-4.0635,-4.0576,-4.0721,-4.0631,-4.0707,-4.0708,-4.0739,-4.0738,-4.0987,-4.0753,-4.0753,-4.0752,-4.0752,0,-4.0621,-4.0692,-4.0634,-4.0679,-4.0756,-4.0703,-4.078,-4.0767,-4.0765,-4.0806,-4.074,-4.078,-4.0724,-4.0758,-4.0726,-4.0797,-4.0803,-4.0791,-4.0781,-4.0796,-4.0797,-4.0804,-4.0792,-4.0758,-4.0757,-4.0756,-4.0755,0,-4.0822,-4.0786,-4.086,-4.0841,-4.0838,-4.0896,-4.0879,-4.092,-4.0896,-4.0949,-4.0958,-4.0922,-4.0959,-4.092,-4.0955,-4.0934,-4.1028,-4.1004,-4.1028,-4.1021,-4.1099,-4.1092,-4.1361,-4.1393,-4.114,-4.1142,-4.1144,0,-4.0942,-4.0995,-4.0982,-4.1005,-4.1004,-4.1042,-4.106,-4.101,-4.1031,-4.1037,-4.1077,-4.1109,-4.1131,-4.1195,-4.1172,-4.1198,-4.1173,-4.1265,-4.1176,-4.1189,-4.1173,-4.117,-4.1175,-4.1283,-4.1286,-4.1288,-4.129,0,-4.116,-4.114,-4.1168,-4.1191,-4.1215,-4.123,-4.124,-4.1263,-4.1212,-4.1239,-4.1276,-4.1294,-4.133,-4.1363,-4.1383,-4.1378,-4.1326,-4.1319,-4.1338,-4.1352,-4.1364,-4.1358,-4.1076,-4.1312,-4.131,-4.1309,-4.1307,-4.1306,-4.1324,-4.1367,-4.1364,-4.1398,-4.1401,-4.1413,-4.145,-4.1432,-4.1462,-4.1487,-4.1457,-4.1503,-4.1503,-4.1524,-4.1526,-4.1562,-4.1522,-4.155,-4.1557,-4.1564,-4.1575,-4.136,-4.1565,-4.1565,-4.1564,-4.1563,-4.1563,0,-4.1537,-4.1532,-4.1564,-4.1581,-4.1608,-4.1557,-4.1567,-4.1592,-4.1634,-4.1638,-4.1662,-4.1706,-4.1738,-4.1718,-4.1745,-4.1777,-4.1754,-4.1786,-4.1782,-4.1782,-4.1609,-4.159,-4.1804,-4.1804,-4.1804,-4.1804,-4.1804,-4.1804,-4.1651,-4.1721,-4.1702,-4.1773,-4.1767,-4.1812,-4.1822,-4.1832,-4.1835,-4.1887,-4.1913,-4.19,-4.1895,-4.1921,-4.1948,-4.1941,-4.1954,-4.1994,-4.1979,-4.1818,-4.1794,-4.1771,-4.1753,-4.1998,-4.1998,-4.2149,-4.215,-4.2151]},{"header":{"parameterUnit":"m.s-1","parameterCategory":1,"la1":30.2991,"la2":30.254,"lo1":-89.0895,"lo2":-89.0444,"dy":0.0017,"dx":0.0017,"nx":28,"ny":28,"refTime":"2023-08-29T03:00:00:Z","depth":0,"parameterNumber":3,"parameterNumberName":"V-component_of_WINDS"},"data":[0,0,0,0,0,0,0,0,0,0,0,0,0,0,0,0,0,0,0,0,0,0,0,0,0,0,0,0,0,0,0,0,0,0,0,0,0,0,0,0,0,0,0,0,0,0,0,0,0,0,0,0,0,0,0,0,0,0,-1.2134,-1.2134,0,-1.2135,-1.2135,-1.2135,-1.2131,-1.2131,-1.2131,-1.2131,-1.213,-1.213,-1.213,0,0,0,0,0,0,0,0,0,0,0,0,0,-1.2124,-1.2125,-1.2134,-1.2134,-1.2134,-1.2135,-1.2135,-1.2135,-1.2131,-1.2131,-1.2131,-1.2131,-1.213,-1.213,-1.213,0,0,0,0,0,0,0,0,0,0,0,0,0,-1.2127,-1.2125,-1.2134,-1.2132,-1.2132,-1.2135,-1.2135,-1.2135,-1.2131,-1.2131,-1.2131,-1.2131,-1.213,-1.213,-1.213,-1.2134,0,0,-1.2131,-1.2131,0,0,0,0,0,0,0,0,-1.2127,-1.2127,-1.2132,-1.2132,-1.2132,-1.2133,-1.2131,-1.2134,-1.2131,-1.2131,-1.2131,-1.2131,-1.2131,-1.2131,-1.2132,-1.2134,-1.2134,-1.2131,-1.2131,-1.2131,-1.2131,0,0,0,0,0,0,0,-1.2127,-1.2127,-1.2134,-1.2132,-1.2132,-1.213,-1.213,-1.2132,-1.2132,-1.2131,-1.2131,-1.2131,-1.2131,-1.2131,-1.2132,-1.2134,-1.2131,-1.2131,-1.2131,-1.2131,-1.2136,-1.2136,0,0,0,0,0,0,-1.2127,-1.2127,-1.2134,-1.2134,-1.2129,-1.213,-1.213,-1.2133,-1.2132,-1.2132,-1.2132,-1.2131,-1.2131,-1.2131,-1.2131,-1.2134,-1.2131,-1.2131,-1.2131,-1.2136,-1.2136,-1.2136,0,0,0,0,0,0,-1.2127,-1.2128,-1.2134,-1.2131,-1.2131,-1.2131,-1.2133,-1.2133,-1.2133,-1.2132,-1.2132,-1.2132,-1.2131,-1.2131,-1.2133,-1.2134,-1.2131,-1.2131,-1.2136,-1.2136,-1.2136,-1.214,0,0,0,0,0,0,-1.2127,-1.2128,-1.2131,-1.2131,-1.2131,-1.2137,-1.2133,-1.2133,-1.2134,-1.2133,-1.2133,-1.2133,-1.2131,-1.2133,-1.2133,-1.2134,-1.2131,-1.2136,-1.2136,-1.2136,-1.214,-1.214,-1.2141,0,0,0,0,0,-1.2127,-1.2132,-1.2131,-1.2132,-1.2135,-1.2137,-1.2137,-1.2136,-1.2134,-1.2136,-1.2134,-1.2133,-1.2134,-1.2133,-1.2133,-1.2134,-1.2136,-1.2136,-1.2136,-1.214,-1.214,-1.2141,0,0,0,0,0,0,-1.2132,-1.2132,-1.2131,-1.2137,-1.2137,-1.2136,-1.2139,-1.2137,-1.2137,-1.2137,-1.2134,-1.2134,-1.2136,-1.2135,-1.2134,-1.2136,-1.2134,-1.2134,-1.2137,-1.2137,-1.2138,-1.2138,-1.2131,0,0,0,0,0,-1.2134,-1.2137,-1.2136,-1.2141,-1.2141,-1.214,-1.2141,-1.2139,-1.2139,-1.2139,-1.2138,-1.2137,-1.2137,-1.2137,-1.2137,-1.2139,-1.2138,-1.214,-1.214,-1.214,-1.2141,-1.2139,-1.2139,-1.2137,-1.2137,-1.2137,0,0,-1.2138,-1.2138,-1.214,-1.2142,-1.2142,-1.2143,-1.214,-1.2142,-1.2142,-1.2139,-1.214,-1.2139,-1.2138,-1.2139,-1.2139,-1.2138,-1.2141,-1.2141,-1.2141,-1.2141,-1.2139,-1.214,-1.214,-1.2137,-1.2137,-1.2137,0,0,-1.2146,-1.2148,-1.2151,-1.215,-1.215,-1.2148,-1.2149,-1.2148,-1.2147,-1.2148,-1.2145,-1.2144,-1.2145,-1.2143,-1.2142,-1.2145,-1.2143,-1.2145,-1.2148,-1.2146,-1.2146,-1.2146,-1.2146,-1.2146,-1.2145,-1.2145,-1.2145,0,-1.2152,-1.2155,-1.2153,-1.2154,-1.2154,-1.215,-1.2152,-1.2151,-1.2151,-1.215,-1.2149,-1.2147,-1.2146,-1.2146,-1.2146,-1.2146,-1.2145,-1.2146,-1.2147,-1.2147,-1.2147,-1.2146,-1.2146,-1.2146,-1.2146,-1.2146,-1.2146,0,-1.216,-1.2161,-1.2164,-1.2163,-1.2162,-1.2164,-1.2161,-1.2161,-1.2158,-1.2156,-1.2156,-1.2154,-1.2152,-1.2152,-1.215,-1.215,-1.2149,-1.2147,-1.2145,-1.2147,-1.2147,-1.2147,-1.2146,-1.2146,-1.2146,-1.2146,0,0,-1.2174,-1.217,-1.217,-1.2169,-1.2166,-1.2167,-1.2167,-1.2165,-1.2164,-1.2163,-1.2162,-1.216,-1.2158,-1.2156,-1.2154,-1.2153,-1.2153,-1.2151,-1.215,-1.215,-1.215,-1.2151,-1.2151,-1.2151,-1.2151,-1.2151,-1.215,0,-1.2181,-1.2182,-1.2179,-1.218,-1.218,-1.2175,-1.2174,-1.2172,-1.2169,-1.2167,-1.2164,-1.2162,-1.216,-1.2159,-1.2157,-1.2153,-1.2153,-1.2153,-1.2148,-1.2148,-1.2149,-1.2151,-1.2153,-1.2153,-1.215,-1.215,-1.215,0,-1.219,-1.2188,-1.219,-1.2184,-1.2184,-1.2184,-1.218,-1.2179,-1.2175,-1.2173,-1.217,-1.2166,-1.2164,-1.2162,-1.2157,-1.2157,-1.2155,-1.2152,-1.2152,-1.2151,-1.2149,-1.215,-1.2153,-1.2153,-1.215,-1.215,-1.215,0,-1.2199,-1.2197,-1.2196,-1.2195,-1.2189,-1.2189,-1.2186,-1.2182,-1.218,-1.2176,-1.2174,-1.217,-1.2168,-1.2164,-1.2159,-1.2158,-1.2154,-1.2152,-1.215,-1.2151,-1.2151,-1.2151,-1.2152,-1.2149,-1.2149,-1.2149,-1.2149,0,-1.2207,-1.2207,-1.22,-1.22,-1.2199,-1.2194,-1.2193,-1.219,-1.2185,-1.2183,-1.2178,-1.2175,-1.2168,-1.2165,-1.216,-1.2156,-1.2155,-1.2152,-1.215,-1.2152,-1.2152,-1.2151,-1.215,-1.2149,-1.2149,-1.2149,-1.2149,0,-1.2217,-1.2212,-1.2211,-1.2205,-1.2203,-1.2203,-1.2197,-1.2195,-1.2191,-1.2188,-1.2186,-1.2179,-1.2174,-1.2168,-1.2161,-1.2158,-1.2153,-1.2152,-1.2155,-1.2154,-1.2153,-1.2153,-1.2154,-1.2152,-1.2151,-1.2151,-1.2151,0,-1.2223,-1.2223,-1.2216,-1.2214,-1.2211,-1.2208,-1.2206,-1.2199,-1.2197,-1.219,-1.2188,-1.2183,-1.2178,-1.217,-1.2163,-1.2157,-1.2155,-1.2155,-1.2154,-1.2155,-1.2153,-1.2153,-1.2152,-1.2156,-1.2156,-1.2156,-1.2156,0,-1.2233,-1.2229,-1.2226,-1.2221,-1.2218,-1.2214,-1.221,-1.2208,-1.22,-1.2197,-1.2192,-1.2188,-1.2179,-1.2173,-1.2166,-1.2161,-1.2156,-1.2156,-1.2155,-1.2157,-1.2158,-1.2156,-1.2156,-1.2156,-1.2156,-1.2156,-1.2156,-1.2156,-1.224,-1.2239,-1.2233,-1.2229,-1.2224,-1.2219,-1.2217,-1.2211,-1.2207,-1.22,-1.2196,-1.219,-1.2182,-1.2171,-1.2167,-1.2161,-1.2159,-1.2159,-1.2158,-1.2158,-1.2158,-1.2159,-1.2159,-1.2159,-1.2159,-1.2159,-1.2159,0,-1.2249,-1.2244,-1.224,-1.2233,-1.2229,-1.2225,-1.2218,-1.2215,-1.221,-1.2203,-1.2198,-1.219,-1.2183,-1.2175,-1.2167,-1.2164,-1.2161,-1.2162,-1.2162,-1.216,-1.216,-1.2161,-1.2164,-1.2164,-1.2164,-1.2164,-1.2164,-1.2164,-1.2253,-1.225,-1.2245,-1.2239,-1.2234,-1.2228,-1.2224,-1.2219,-1.2213,-1.2205,-1.2199,-1.2193,-1.2185,-1.2176,-1.2168,-1.2166,-1.2163,-1.2164,-1.2161,-1.2161,-1.2161,-1.216,-1.2161,-1.2163,-1.2163,-1.2161,-1.2161,-1.2161]}]]